Wetbulb
68.94 70.75 72.18 73.39 73.50 73.10 72.74 72.80 72.83 72.93 73.49 73.74 73.75 73.87 73.80 74.02 74.05 74.21 74.37 74.48 74.43 74.65 73.86 73.68 73.78 73.93 73.33 72.85 73.31 72.88 72.34 71.91 71.91 72.33 73.14 73.06 72.96 72.71 72.35 72.16 71.68 70.65 71.74
70.03 71.05 71.51 72.56 73.29 73.35 73.05 72.77 72.86 73.23 73.74 73.88 73.65 73.61 73.49 73.71 73.94 74.24 74.42 74.38 74.55 74.40 73.76 73.43 73.09 73.31 73.11 72.78 72.57 72.27 71.63 71.59 71.49 71.74 72.48 72.52 72.59 72.24 71.93 71.40 71.39 70.79 71.46
69.89 70.82 71.52 71.76 72.73 73.27 73.64 73.29 73.35 73.76 73.91 73.79 73.62 73.45 73.46 73.60 73.67 73.94 74.17 74.22 74.38 74.20 73.61 73.28 73.11 72.59 72.53 72.21 71.59 71.49 71.59 71.23 70.97 71.06 71.02 68.31 70.30 71.62 71.51 71.23 71.35 71.21 70.74
70.03 70.59 70.90 71.38 72.11 72.57 72.98 73.17 73.39 73.98 73.86 73.76 73.67 73.65 73.67 73.60 73.36 73.59 73.65 73.58 74.06 74.34 73.68 73.36 73.01 72.39 72.01 71.62 71.01 71.12 71.01 70.56 70.06 69.67 67.71 68.51 69.79 70.89 71.29 70.81 70.54 70.62 70.69
69.63 70.42 70.62 70.81 71.27 72.16 72.45 72.93 73.20 73.42 73.08 73.21 73.30 73.65 73.82 73.67 73.54 73.12 72.61 72.68 73.12 73.78 73.98 73.29 72.78 71.84 71.00 70.22 70.05 70.23 70.22 69.67 68.71 67.45 65.20 67.52 68.04 70.34 70.83 70.42 70.19 70.13 69.89
68.84 69.77 69.52 69.88 70.88 72.08 72.68 73.02 73.28 72.90 72.49 72.55 72.70 73.39 73.67 73.85 73.46 72.71 72.03 72.54 73.25 73.55 73.88 73.43 72.34 71.29 69.80 69.49 69.46 69.55 69.20 67.90 66.67 65.69 65.94 68.05 67.32 70.21 70.32 69.79 69.73 69.55 69.19
67.78 68.78 69.38 69.16 70.80 71.98 73.07 73.16 72.72 72.17 72.07 72.09 72.64 72.81 73.21 73.42 73.12 72.12 71.58 72.31 72.62 72.92 72.87 72.36 71.49 70.20 69.36 69.07 68.97 68.34 67.21 66.87 65.27 65.13 64.96 65.43 67.85 70.30 70.17 69.30 68.92 68.90 68.92
66.94 68.24 68.89 70.08 70.83 71.41 72.11 72.11 71.26 70.48 71.21 71.48 71.95 72.33 72.71 72.41 71.91 71.60 71.20 71.61 71.46 71.90 71.62 71.18 70.13 69.69 69.11 68.94 68.59 67.30 66.09 66.29 65.73 65.25 65.56 65.43 68.30 69.61 69.41 69.23 68.73 68.38 68.26
67.11 67.68 68.00 69.01 70.47 70.43 70.10 70.14 69.70 69.97 70.47 70.72 70.86 71.12 71.25 70.72 70.61 70.77 70.91 71.14 70.96 70.75 70.45 70.21 69.34 68.81 68.76 68.49 67.92 64.89 65.19 65.40 63.97 62.05 65.94 66.50 69.06 69.18 69.38 68.78 67.86 67.61 67.30
66.58 66.96 67.21 67.18 68.47 69.53 70.21 69.24 69.19 69.53 69.49 69.94 70.20 70.32 69.71 69.41 69.61 70.05 69.84 70.21 70.19 69.99 69.82 69.43 68.64 68.24 68.15 67.46 66.81 64.87 64.64 65.07 62.96 62.19 64.71 65.91 68.79 68.81 69.05 68.35 67.71 67.09 66.33
66.29 66.22 66.80 67.09 66.44 66.28 68.15 69.94 69.37 69.62 69.40 69.17 69.78 69.78 68.85 68.94 68.94 69.41 69.09 68.93 69.40 68.74 68.83 68.63 67.97 67.37 66.76 66.49 65.91 64.53 64.41 62.97 63.61 64.52 64.07 66.79 68.67 68.94 68.98 68.15 67.07 66.48 65.98
65.56 65.72 66.53 66.71 66.44 66.17 68.94 69.15 69.24 69.93 69.95 69.03 68.97 68.98 68.92 67.68 67.28 68.69 68.40 67.86 68.62 68.09 67.78 67.38 67.12 66.58 66.04 64.18 63.77 64.43 63.15 63.34 63.59 62.86 63.59 66.26 68.34 68.85 68.81 67.79 66.74 66.18 65.56
67.23 66.81 66.87 66.76 66.60 66.76 67.23 67.09 67.81 68.36 67.97 68.14 68.40 67.07 67.34 68.15 67.36 67.07 66.21 66.81 66.56 67.28 66.40 65.98 65.33 64.45 63.96 62.87 61.70 61.79 62.37 62.84 62.98 63.34 64.19 65.85 67.60 68.78 68.56 67.72 66.80 65.90 65.26
67.17 67.57 67.41 67.17 66.92 66.89 66.91 66.51 66.77 66.87 67.18 67.41 68.63 67.45 67.23 67.34 66.41 65.76 65.24 65.00 64.75 64.09 64.43 63.93 63.20 62.95 62.75 62.42 61.56 61.42 61.99 62.27 61.89 61.61 63.40 64.85 66.40 67.82 68.36 67.72 66.95 66.12 65.17
66.05 67.61 67.61 67.61 67.37 67.37 67.12 66.52 66.74 66.46 66.53 66.66 66.98 67.41 67.57 66.93 66.75 65.58 65.04 64.86 64.09 63.13 63.69 62.80 62.31 62.13 62.11 61.98 61.74 61.56 61.86 61.67 62.03 61.44 61.28 63.40 64.56 66.88 67.96 67.34 67.19 66.66 65.51
65.85 66.15 68.02 67.85 67.79 67.80 67.42 67.19 66.76 66.81 66.65 66.65 66.60 67.39 67.46 67.21 66.78 65.31 64.91 64.97 64.45 63.48 63.17 63.26 62.54 61.75 61.85 62.01 61.65 61.83 61.43 61.30 61.15 61.08 62.01 63.45 62.86 64.63 66.06 67.01 66.69 66.58 65.97
65.48 66.30 66.94 67.64 68.09 67.88 67.05 67.60 67.05 67.20 67.50 66.88 66.88 66.83 67.12 66.94 66.47 65.82 64.84 64.57 64.44 64.66 62.91 62.51 61.36 61.04 61.55 61.51 60.76 61.71 61.73 60.90 61.04 60.63 60.81 62.55 62.89 62.18 63.20 65.12 65.79 66.20 65.48
65.50 65.09 65.60 68.15 67.77 67.78 67.22 66.75 66.63 67.14 67.29 67.34 66.90 67.30 67.01 66.74 66.54 65.48 64.96 64.46 64.28 64.03 63.06 62.61 61.91 61.23 61.36 61.31 59.49 60.53 62.29 62.03 61.02 61.27 62.19 62.45 62.63 63.39 62.43 63.19 63.88 65.02 64.83
56.39 64.59 64.58 66.17 66.92 67.31 67.18 66.80 66.38 66.98 66.97 67.17 67.29 67.21 67.30 67.08 66.63 66.00 65.37 63.98 63.77 63.10 62.72 62.54 61.77 61.77 61.09 60.85 61.16 61.12 61.39 61.29 60.96 62.19 61.95 62.26 61.97 62.33 62.43 62.03 62.55 62.61 63.35
51.11 57.80 64.09 65.31 66.56 67.40 67.30 66.75 65.47 66.56 66.72 66.72 66.96 67.11 66.38 67.34 66.56 65.98 65.04 64.13 63.91 62.34 60.77 61.43 61.08 58.50 61.61 61.93 61.26 61.10 60.97 61.38 61.18 60.51 61.57 62.20 61.66 60.89 60.59 60.71 61.58 60.99 61.11
49.93 51.83 62.77 64.00 65.66 66.89 66.45 65.48 64.34 64.27 64.81 65.36 66.25 66.81 66.34 66.38 66.61 65.46 64.91 64.98 64.95 63.02 61.41 61.09 61.20 60.98 60.57 61.79 59.49 59.53 59.87 60.46 60.42 60.57 61.29 61.36 61.04 60.39 60.06 60.33 60.40 60.10 60.79
52.32 53.46 61.93 64.32 65.30 66.41 66.71 66.68 64.98 64.06 63.90 65.07 65.39 65.78 66.49 65.74 66.03 66.27 65.19 64.38 64.92 63.38 60.94 61.10 61.68 59.87 59.49 61.23 58.18 56.59 54.30 56.75 59.34 59.91 60.20 60.66 60.26 60.43 59.56 59.87 60.11 59.79 59.96
53.28 56.51 63.11 65.54 65.89 66.31 66.22 64.38 62.85 62.62 61.60 61.37 61.27 63.57 65.12 65.45 65.45 65.76 65.20 64.39 64.16 63.80 62.55 62.40 61.70 60.46 58.34 59.99 59.29 56.63 52.85 52.20 55.46 58.74 58.82 59.95 59.69 59.41 59.36 59.56 59.35 59.22 59.28
52.47 55.76 57.54 59.06 59.52 60.47 62.42 62.64 60.78 62.19 62.15 61.55 62.59 63.01 63.48 64.66 64.55 64.87 64.02 63.42 63.58 63.29 62.64 61.83 61.38 60.64 59.16 57.65 59.08 58.45 56.13 55.54 52.66 51.76 57.11 58.14 59.24 58.47 58.47 58.76 58.94 58.53 58.58
51.67 51.67 52.64 53.83 54.12 56.42 57.22 58.28 61.53 60.94 61.69 60.07 59.89 61.76 62.89 63.61 64.70 65.12 64.27 63.98 63.00 62.37 61.40 60.74 60.25 59.46 59.26 57.92 57.84 57.09 55.49 55.43 55.35 52.99 51.86 54.94 57.11 58.31 58.64 58.24 58.34 58.12 58.12
49.81 50.46 50.63 51.05 51.23 52.71 53.83 54.61 56.72 58.62 59.78 59.50 59.26 59.98 60.13 61.67 64.10 64.29 64.18 63.25 62.91 61.88 60.17 60.30 60.09 59.41 58.76 58.06 57.68 57.83 56.57 55.42 54.18 53.83 52.36 54.35 54.34 55.93 57.93 58.28 57.94 57.94 58.18
MSLP
1008.90 1008.84 1008.83 1009.10 1009.38 1009.48 1009.95 1010.18 1010.50 1010.86 1011.24 1011.56 1011.83 1012.07 1012.37 1012.71 1012.96 1013.31 1013.59 1013.79 1013.96 1014.18 1014.39 1014.54 1014.75 1014.90 1015.06 1015.31 1015.45 1015.54 1015.81 1015.99 1016.23 1016.30 1016.67 1016.71 1016.94 1017.23 1017.44 1017.55 1017.65 1017.78 1018.00
1007.62 1008.44 1008.72 1008.99 1009.29 1009.53 1009.89 1010.35 1010.71 1011.02 1011.38 1011.78 1012.11 1012.34 1012.57 1012.92 1013.18 1013.51 1013.85 1014.07 1014.29 1014.42 1014.65 1014.85 1015.03 1015.27 1015.41 1015.65 1015.80 1015.98 1016.21 1016.44 1016.81 1016.86 1016.98 1017.20 1017.38 1017.64 1017.83 1018.14 1018.25 1018.30 1018.44
1007.69 1008.24 1008.68 1008.91 1009.30 1009.59 1009.82 1010.36 1010.77 1011.07 1011.49 1011.87 1012.26 1012.56 1012.81 1013.05 1013.37 1013.68 1013.95 1014.16 1014.36 1014.58 1014.75 1014.99 1015.22 1015.48 1015.76 1016.03 1016.19 1016.32 1016.70 1016.94 1017.08 1017.22 1017.44 1017.53 1017.87 1018.03 1018.17 1018.50 1018.60 1018.77 1018.84
1007.48 1008.14 1008.56 1008.85 1009.29 1009.56 1009.88 1010.35 1010.81 1011.16 1011.54 1011.92 1012.38 1012.72 1012.98 1013.29 1013.59 1013.86 1014.10 1014.31 1014.44 1014.71 1014.96 1015.15 1015.43 1015.78 1016.09 1016.30 1016.49 1016.72 1017.01 1017.23 1017.42 1017.63 1017.83 1017.97 1018.15 1018.33 1018.54 1018.75 1019.09 1019.16 1019.22
1007.95 1008.30 1008.57 1008.93 1009.20 1009.47 1009.89 1010.42 1010.84 1011.25 1011.61 1011.96 1012.38 1012.76 1013.04 1013.38 1013.66 1013.95 1014.26 1014.46 1014.57 1014.70 1014.99 1015.37 1015.84 1016.21 1016.50 1016.62 1016.80 1016.99 1017.29 1017.61 1017.79 1017.92 1018.11 1018.07 1018.34 1018.72 1018.91 1019.13 1019.34 1019.54 1019.71
1008.08 1008.38 1008.69 1009.12 1009.21 1009.38 1009.71 1010.34 1010.88 1011.32 1011.71 1012.04 1012.39 1012.73 1013.03 1013.39 1013.71 1013.97 1014.29 1014.53 1014.67 1014.85 1015.17 1015.51 1015.93 1016.39 1016.70 1016.89 1017.03 1017.28 1017.45 1017.89 1018.07 1018.23 1018.36 1018.44 1018.61 1019.06 1019.30 1019.56 1019.70 1019.91 1020.09
1008.10 1008.49 1008.81 1009.18 1009.26 1009.29 1009.68 1010.22 1010.77 1011.31 1011.74 1012.04 1012.32 1012.67 1012.95 1013.31 1013.69 1013.98 1014.26 1014.50 1014.64 1014.93 1015.27 1015.80 1016.06 1016.51 1016.90 1017.08 1017.19 1017.32 1017.74 1018.00 1018.23 1018.63 1018.86 1018.99 1018.87 1019.03 1019.41 1019.85 1020.11 1020.30 1020.28
1007.77 1008.48 1008.96 1009.27 1009.31 1009.36 1009.71 1010.27 1010.82 1011.15 1011.63 1012.07 1012.36 1012.61 1012.81 1013.24 1013.60 1013.99 1014.24 1014.49 1014.78 1015.02 1015.39 1015.87 1016.17 1016.57 1016.87 1017.04 1017.35 1017.62 1018.03 1018.08 1018.42 1018.78 1019.02 1019.24 1019.33 1019.40 1019.61 1020.03 1020.30 1020.50 1020.56
1007.77 1008.31 1008.84 1009.28 1009.46 1009.43 1009.73 1010.23 1010.75 1011.24 1011.54 1011.90 1012.37 1012.68 1012.85 1013.18 1013.61 1013.95 1014.19 1014.50 1014.78 1015.02 1015.43 1015.80 1016.16 1016.50 1016.91 1016.99 1017.39 1017.92 1018.24 1018.28 1018.63 1018.83 1018.92 1019.02 1019.49 1019.76 1019.89 1020.17 1020.52 1020.86 1021.09
1008.08 1008.42 1008.77 1009.16 1009.53 1009.69 1010.02 1010.28 1010.68 1011.16 1011.56 1011.87 1012.16 1012.62 1012.97 1013.22 1013.47 1013.88 1014.20 1014.47 1014.78 1014.97 1015.36 1015.78 1016.07 1016.45 1016.78 1016.94 1017.44 1018.06 1018.33 1018.50 1018.72 1018.78 1018.75 1019.10 1019.30 1019.84 1020.19 1020.44 1020.73 1021.12 1021.42
1008.49 1008.50 1008.68 1009.15 1009.45 1009.84 1010.02 1010.36 1010.72 1011.15 1011.54 1011.89 1012.20 1012.52 1012.93 1013.46 1013.67 1013.88 1014.10 1014.45 1014.71 1015.00 1015.29 1015.62 1016.08 1016.43 1016.78 1017.00 1017.36 1018.18 1018.37 1018.51 1018.86 1018.81 1018.85 1018.91 1019.17 1019.56 1020.11 1020.57 1020.89 1021.20 1021.61
1008.22 1008.56 1008.47 1008.84 1009.31 1009.80 1009.98 1010.35 1010.70 1011.11 1011.53 1011.81 1012.15 1012.37 1012.90 1013.37 1013.73 1014.05 1014.18 1014.37 1014.66 1014.97 1015.25 1015.57 1016.01 1016.38 1016.80 1017.15 1017.67 1018.11 1018.28 1018.40 1018.70 1018.90 1018.94 1018.98 1019.22 1019.30 1019.91 1020.54 1020.97 1021.28 1021.66
1006.89 1008.05 1008.43 1008.74 1009.13 1009.52 1009.84 1010.20 1010.55 1010.86 1011.32 1011.77 1011.96 1012.38 1012.71 1013.30 1013.58 1014.02 1014.33 1014.46 1014.67 1014.94 1015.36 1015.75 1016.13 1016.44 1016.79 1017.23 1017.68 1018.15 1018.41 1018.39 1018.52 1018.73 1018.83 1018.93 1019.30 1019.44 1019.72 1020.33 1020.84 1021.23 1021.63
1006.00 1006.50 1007.50 1008.27 1008.78 1009.21 1009.54 1009.98 1010.20 1010.67 1010.96 1011.40 1011.67 1012.16 1012.57 1013.04 1013.45 1013.80 1014.24 1014.51 1014.73 1015.00 1015.30 1015.69 1016.10 1016.42 1016.76 1017.13 1017.58 1018.05 1018.43 1018.50 1018.61 1018.70 1018.72 1018.80 1019.08 1019.48 1019.80 1020.18 1020.61 1021.01 1021.58
1005.26 1005.76 1006.18 1007.00 1007.74 1008.42 1009.02 1009.49 1009.84 1010.29 1010.53 1010.84 1011.32 1011.73 1012.11 1012.61 1013.13 1013.38 1013.81 1014.25 1014.66 1015.01 1015.30 1015.64 1015.99 1016.32 1016.73 1017.16 1017.53 1017.90 1018.19 1018.53 1018.62 1018.77 1018.83 1018.95 1019.13 1019.30 1019.34 1020.00 1020.48 1020.76 1021.37
1004.50 1005.00 1005.41 1006.08 1006.60 1007.16 1007.85 1008.46 1008.83 1009.42 1009.85 1010.38 1010.79 1011.17 1011.65 1012.06 1012.58 1013.09 1013.53 1013.92 1014.31 1014.72 1015.16 1015.42 1015.80 1016.21 1016.55 1016.98 1017.47 1017.72 1017.94 1018.26 1018.51 1018.73 1018.90 1018.98 1019.04 1019.14 1019.40 1019.68 1020.30 1020.60 1021.04
1003.84 1004.18 1004.89 1005.27 1006.08 1006.65 1007.12 1007.75 1008.25 1008.64 1009.09 1009.77 1010.09 1010.58 1011.08 1011.54 1012.07 1012.56 1013.17 1013.54 1013.79 1014.30 1014.80 1015.33 1015.77 1016.13 1016.48 1016.77 1017.33 1017.61 1017.86 1018.16 1018.31 1018.58 1018.74 1018.92 1019.12 1019.29 1019.51 1019.78 1020.01 1020.34 1020.87
1003.15 1003.84 1004.30 1004.88 1005.49 1005.95 1006.52 1007.17 1007.66 1008.11 1008.56 1008.97 1009.35 1009.92 1010.39 1010.88 1011.46 1012.03 1012.70 1013.15 1013.41 1013.88 1014.41 1015.10 1015.66 1016.24 1016.44 1016.61 1017.03 1017.45 1017.67 1018.02 1018.31 1018.46 1018.55 1018.71 1018.84 1019.30 1019.45 1019.90 1019.95 1020.41 1020.85
1002.37 1003.03 1003.57 1004.25 1004.88 1005.29 1005.78 1006.30 1006.81 1007.35 1008.03 1008.41 1008.82 1009.34 1009.83 1010.35 1010.93 1011.47 1012.13 1012.70 1013.13 1013.69 1014.23 1014.73 1015.35 1015.76 1016.31 1016.56 1016.86 1017.22 1017.60 1017.97 1018.10 1018.21 1018.33 1018.45 1018.60 1019.00 1019.26 1019.56 1019.90 1020.43 1020.65
1001.39 1002.20 1002.67 1003.23 1003.95 1004.52 1005.17 1005.96 1006.82 1007.36 1007.85 1008.17 1008.56 1008.92 1009.37 1009.81 1010.40 1011.01 1011.61 1012.24 1012.74 1013.42 1014.05 1014.58 1014.99 1015.56 1015.84 1016.25 1016.73 1017.04 1017.39 1017.73 1017.89 1018.09 1018.11 1018.28 1018.36 1018.66 1019.05 1019.42 1019.93 1020.38 1020.52
1000.94 1001.53 1002.23 1002.69 1003.27 1004.26 1005.17 1005.91 1006.79 1007.36 1007.81 1008.12 1008.31 1008.38 1008.87 1009.41 1009.99 1010.57 1011.29 1011.81 1012.40 1013.06 1013.58 1014.16 1014.75 1015.22 1015.72 1016.07 1016.63 1016.86 1017.12 1017.35 1017.64 1017.80 1017.78 1017.98 1018.25 1018.33 1018.82 1019.19 1019.77 1020.27 1020.50
1000.83 1001.10 1001.68 1002.38 1003.14 1003.59 1004.39 1005.09 1006.00 1006.79 1007.30 1007.58 1008.05 1008.35 1008.55 1008.94 1009.47 1010.13 1010.74 1011.47 1012.00 1012.61 1013.26 1013.77 1014.14 1014.83 1015.37 1015.66 1016.16 1016.51 1016.93 1017.15 1017.13 1017.26 1017.50 1017.69 1017.99 1017.97 1018.51 1018.89 1019.38 1019.99 1020.17
1000.94 1001.26 1001.62 1002.26 1002.89 1003.49 1004.06 1004.99 1005.82 1006.47 1007.27 1007.81 1008.19 1008.33 1008.34 1008.59 1009.08 1009.58 1010.29 1010.97 1011.55 1012.04 1012.66 1013.09 1013.61 1014.14 1014.84 1015.30 1015.47 1015.73 1016.54 1016.45 1016.84 1016.75 1016.86 1017.09 1017.38 1017.69 1018.00 1018.56 1019.09 1019.70 1020.10
1001.81 1002.01 1002.01 1002.94 1003.50 1003.96 1004.57 1005.31 1006.01 1006.30 1006.77 1006.95 1007.27 1007.66 1007.84 1008.28 1008.71 1009.14 1009.76 1010.33 1010.89 1011.58 1012.09 1012.61 1013.04 1013.49 1014.21 1014.84 1015.47 1015.42 1015.52 1015.80 1016.28 1016.58 1016.60 1016.70 1016.83 1017.18 1017.67 1018.21 1018.73 1019.33 1019.87
1003.06 1003.35 1003.64 1004.32 1004.88 1005.11 1005.15 1005.64 1006.29 1006.64 1006.86 1006.87 1006.92 1007.32 1007.55 1007.94 1008.22 1008.59 1009.18 1009.78 1010.30 1010.99 1011.62 1012.05 1012.70 1012.98 1013.47 1014.17 1014.76 1015.14 1015.72 1015.71 1015.65 1015.90 1016.04 1016.29 1016.80 1016.91 1017.38 1017.81 1018.19 1018.79 1019.36
1004.20 1004.26 1004.69 1005.11 1005.99 1006.44 1006.62 1006.94 1007.26 1007.50 1007.64 1007.47 1007.27 1007.32 1007.38 1007.57 1007.90 1008.25 1008.78 1009.11 1009.48 1010.09 1010.93 1011.58 1012.13 1012.42 1012.98 1013.55 1014.17 1014.58 1014.49 1014.94 1015.01 1015.33 1015.38 1015.74 1015.90 1016.68 1017.11 1017.61 1018.03 1018.38 1018.86
Wind_Speed
7 10 14 15 14 15 14 15 14 14 13 13 13 15 15 16 16 16 15 15 16 16 17 15 12 11 10 12 11 12 13 13 16 17 17 19 19 19 18 16 15 13 17
16 13 14 14 15 15 15 15 15 14 14 13 13 13 15 15 15 15 15 14 15 15 15 14 14 13 13 12 12 13 15 16 14 15 16 17 19 18 18 15 15 14 17
15 13 13 14 14 14 16 16 15 15 14 14 13 13 14 14 15 15 14 14 14 14 15 14 14 14 14 13 12 14 14 14 13 14 13 5 10 18 18 16 16 16 19
15 12 12 15 14 14 15 15 15 16 15 14 13 13 13 14 13 13 12 11 12 14 14 14 13 14 14 12 12 13 13 13 13 12 6 8 9 18 19 18 18 18 18
12 11 12 15 15 16 15 14 15 15 15 15 14 14 14 14 13 12 11 10 10 12 14 13 12 12 10 10 11 12 12 13 10 8 5 8 7 14 18 18 17 17 15
12 10 12 14 16 17 16 15 14 14 14 14 14 14 14 14 13 13 11 11 10 10 11 13 13 11 10 9 10 9 10 12 9 6 5 8 8 15 17 16 15 15 15
11 9 12 13 15 17 17 16 15 15 13 14 14 14 15 14 13 13 12 12 11 11 10 12 11 11 10 7 9 8 9 11 6 5 4 3 8 19 18 17 15 14 15
15 11 10 12 14 16 17 16 15 13 14 13 13 14 15 14 13 13 13 11 10 10 10 12 11 11 11 9 7 6 11 8 7 6 5 4 12 16 18 17 16 15 15
13 13 9 8 10 14 15 15 14 13 13 14 12 12 13 13 12 12 12 11 10 10 10 12 12 11 11 10 7 5 8 9 6 4 6 5 12 14 17 18 15 16 16
10 11 10 7 7 9 10 14 14 13 13 13 13 12 11 11 12 12 12 11 10 10 11 11 11 11 11 8 6 9 8 7 7 5 5 4 15 15 17 17 17 16 17
7 9 10 9 7 6 7 10 12 13 12 12 11 12 9 4 6 9 9 10 10 10 11 12 10 9 9 9 7 10 6 4 4 3 2 14 16 19 18 17 16 17 16
10 10 11 10 10 7 7 9 9 10 8 6 7 9 5 5 4 5 7 10 11 10 11 11 10 9 7 4 4 8 3 5 5 4 3 12 17 20 20 18 17 17 16
16 9 10 10 10 10 8 6 5 6 7 7 8 6 6 4 4 3 2 3 4 8 4 5 5 4 5 4 4 4 4 4 4 3 6 14 16 19 21 21 19 18 17
17 17 15 13 12 10 6 7 7 6 6 6 7 8 6 5 5 4 4 4 4 3 5 5 3 5 5 5 6 6 5 4 3 2 5 12 17 18 20 20 20 19 18
17 16 18 17 16 13 11 8 8 7 7 7 7 8 7 6 7 6 5 5 4 4 5 5 5 5 4 5 5 6 6 6 6 3 3 9 11 15 19 19 20 21 20
17 17 17 18 17 17 14 13 10 9 9 8 8 8 10 7 6 6 6 6 6 6 5 6 6 5 5 5 5 5 6 5 6 6 4 5 10 16 18 20 21 21 21
15 17 17 18 16 16 15 12 9 9 9 9 8 10 11 8 8 7 6 7 7 6 7 4 4 4 5 4 5 5 6 5 5 6 5 5 7 8 8 18 20 20 20
16 15 15 14 17 17 14 12 9 9 9 9 9 8 11 11 10 8 7 6 6 6 7 6 6 5 5 6 4 4 5 6 5 4 4 4 4 5 10 15 16 17 18
14 16 18 17 17 18 16 11 11 11 9 8 8 9 11 11 11 9 7 5 7 6 6 7 5 7 6 5 5 4 4 5 7 6 6 6 7 7 7 11 13 14 16
9 13 17 16 18 18 13 9 4 6 6 7 8 9 11 9 11 9 7 8 7 6 5 6 8 3 6 7 5 5 4 4 5 5 6 6 8 7 7 7 8 8 15
8 9 16 18 18 12 9 9 6 7 5 4 6 10 11 9 10 10 7 9 8 9 8 8 5 8 4 5 3 3 3 6 7 6 5 6 9 9 8 8 6 4 7
7 8 12 15 12 13 10 8 4 5 3 5 5 7 10 10 11 10 9 8 10 7 8 9 8 4 2 8 3 2 2 3 7 8 6 8 10 8 9 9 8 8 8
9 8 11 12 13 11 9 6 4 4 3 3 2 5 8 10 11 12 10 9 9 9 8 10 10 10 5 5 5 4 3 4 2 4 9 8 12 9 9 9 9 7 8
8 8 11 8 8 6 6 4 1 4 6 5 7 5 7 11 10 10 9 9 10 7 9 9 8 8 7 7 3 4 0 3 4 2 3 5 9 11 11 9 9 9 9
14 14 14 16 16 14 11 5 3 3 3 2 2 9 9 9 11 12 11 11 11 8 9 10 9 9 8 5 6 3 3 3 2 2 3 5 4 8 8 9 9 9 9
8 12 12 13 12 11 11 11 9 7 5 2 2 5 6 5 8 11 12 12 12 11 11 9 9 11 10 8 8 6 6 6 4 3 2 6 11 7 6 6 7 8 8
Wind_Direction
166 162 153 148 142 135 131 126 123 121 117 118 117 116 115 115 115 115 116 118 118 116 116 115 109 104 102 101 97 99 103 105 105 108 107 110 112 109 105 100 101 102 104
144 157 152 145 142 140 135 132 131 128 128 126 122 120 117 119 118 119 117 116 116 118 117 113 106 110 109 103 99 100 96 95 99 102 108 111 110 111 106 101 104 105 106
141 151 150 144 147 144 137 138 139 138 137 135 130 128 125 124 123 124 125 125 126 128 126 122 118 121 120 116 111 107 107 108 101 95 94 91 108 117 116 111 108 110 108
142 150 151 149 150 142 139 142 144 146 144 138 136 136 133 125 127 127 129 134 140 145 132 132 128 124 122 122 120 117 121 115 105 101 100 100 110 121 119 115 115 115 114
139 150 153 152 151 145 142 146 149 150 147 144 144 144 139 135 135 132 132 130 136 125 134 132 122 122 119 123 124 126 127 107 88 89 84 110 122 127 124 122 118 113 109
143 151 150 156 151 145 142 148 149 150 149 147 148 148 143 143 145 143 144 137 136 137 139 136 134 130 130 136 131 135 131 91 86 93 107 129 118 128 124 120 119 121 122
140 145 154 159 151 145 144 147 149 155 151 155 153 150 150 153 154 153 151 154 154 148 147 136 133 139 142 149 150 147 117 102 96 89 83 97 130 133 129 128 126 125 115
142 145 154 159 152 146 145 147 154 157 152 159 155 157 158 160 161 158 159 165 161 160 151 140 148 152 154 170 166 143 105 111 101 107 117 84 134 140 140 137 135 126 119
140 144 149 157 155 146 147 151 155 158 155 159 161 164 165 163 164 163 165 167 168 168 151 149 160 161 167 177 167 124 106 111 117 115 109 131 138 152 147 145 136 126 125
138 146 149 147 151 150 155 155 156 158 162 163 161 166 171 171 166 170 170 175 174 170 150 151 160 167 166 170 160 120 117 107 129 136 137 143 148 158 152 147 141 136 137
146 157 155 156 153 153 150 162 157 160 163 164 165 168 166 173 177 177 177 181 178 172 158 156 158 167 164 167 142 117 137 139 144 165 144 165 157 157 154 150 148 145 146
167 179 169 164 162 156 161 163 160 164 169 167 168 175 149 165 169 181 184 182 183 174 162 156 160 174 156 156 129 121 122 144 149 171 174 164 165 160 156 155 155 155 154
167 168 179 170 168 166 169 162 165 166 168 180 170 168 159 167 170 181 178 188 176 167 162 143 148 156 172 158 142 131 153 140 152 170 187 169 172 166 163 159 159 162 160
171 175 173 175 173 177 162 173 173 171 170 178 178 170 168 176 179 174 177 178 170 156 154 153 159 163 178 171 152 148 165 149 157 163 171 169 174 175 172 166 165 167 167
178 180 179 173 176 179 175 179 174 182 180 177 176 180 177 181 186 178 176 168 168 154 162 162 168 163 174 166 156 156 165 167 167 168 167 183 183 182 173 178 179 173 171
187 187 180 183 184 177 183 182 180 179 180 179 186 185 184 182 185 179 177 176 172 172 170 172 177 173 173 164 170 167 170 171 171 171 173 183 193 198 187 187 189 178 173
193 194 185 184 181 186 184 182 180 180 176 181 185 184 186 180 184 178 175 178 178 176 164 159 161 152 158 165 174 170 164 179 182 183 172 177 193 194 221 203 188 180 174
193 190 192 186 185 184 186 182 180 182 181 180 180 185 188 185 178 175 178 183 174 169 164 170 173 177 185 178 166 171 164 180 178 195 172 170 171 192 196 209 184 176 173
190 193 190 187 187 188 189 181 181 175 183 181 179 183 188 184 178 176 176 174 171 169 171 169 175 178 189 185 186 155 167 183 186 182 185 181 178 182 187 186 172 178 174
208 190 189 184 192 191 188 181 145 159 175 180 183 184 179 185 177 174 171 169 168 164 161 169 172 156 188 189 185 181 172 186 191 194 194 186 179 168 172 170 177 184 173
230 160 181 185 196 178 176 177 164 180 176 188 188 185 180 174 176 171 175 176 174 180 176 170 160 179 180 171 135 196 181 193 200 204 189 185 189 178 177 170 169 177 180
179 172 171 185 181 181 178 175 149 157 198 183 186 184 187 179 178 178 174 183 185 170 171 173 172 142 146 169 159 118 173 205 208 203 192 193 193 177 183 180 174 182 175
136 142 143 150 160 168 163 117 84 82 82 99 185 190 194 184 184 186 179 174 173 176 186 186 182 170 175 191 187 142 180 204 149 185 200 198 185 182 183 180 172 175 183
64 50 85 83 86 87 106 95 94 181 184 198 182 194 178 179 181 186 181 174 174 179 181 186 182 178 155 186 190 214 223 144 186 168 195 193 188 183 182 185 182 181 176
70 70 65 68 53 43 38 35 199 203 264 340 147 172 185 185 188 190 189 188 180 177 186 179 182 177 179 173 196 172 190 213 243 158 175 168 189 190 183 182 182 181 183
57 71 69 69 61 62 58 45 34 12 327 214 187 184 181 176 189 196 200 192 187 182 177 182 186 182 183 185 192 208 195 206 206 187 128 193 178 171 175 176 178 184 180